Flag for Czech Republic Weather past 2 weeks in Liberec, Czech Republic

Now
42 °F

Quite cool.


Feels Like: 39 °F
Forecast: 36 / 48 °F
Wind: 5 mph from Northwest

Location: Liberec

Current Time: Oct 24, 2014 at 12:30:47 AM

Latest Report: Oct 23, 2014 at 11:00 PM


Visibility: 9 mi

Pressure: 30.25 "Hg

Humidity: 98%

Dew point: 42 °F

Location of LiberecLocation

Historic Weather in Liberec — Graph

°F

Liberec temperature yesterday

Maximum temperature yesterday: 49 °F (at 3:00 AM)
Minimum temperature yesterday: 43 °F (at 10:00 PM)
Average temperature yesterday: 45 °F

Past Weeks' High & Low Weather Summary

 TemperatureHumidityPressure
High67 °F (Oct 9, 4:00 PM)100% (Oct 12, 8:00 AM)30.29 "Hg (Oct 12, 8:00 AM)
Low42 °F (Oct 22, 6:00 PM)52% (Oct 20, 2:00 PM)29.50 "Hg (Oct 22, 12:00 AM)
Average55 °F87%29.92 "Hg
* Reported Midnight between Oct 8 and Oct 9 — Oct 23 10:00 PM, Liberec, Weather by CustomWeather, © 2014

Note: Actual official high and low records may vary slightly from our data, if they occured in-between our weather recording intervals... More about our weather records

Advertising

Liberec weather history for previous 24 hours

 ConditionsComfort  
Time TempWeatherWind HumidityBarometerVisibility
10:00 PM
Oct 23
43 °FFog.2 mph97%30.24 "Hg6 mi
9:00 PM43 °FFog.2 mph98%30.23 "Hg3 mi
8:00 PM43 °FFog.3 mph99%30.22 "Hg2 mi
7:00 PM43 °FFog.1 mph99%30.21 "Hg2 mi
6:00 PM44 °FFog.2 mph99%30.19 "Hg3 mi
5:00 PM44 °FFog.2 mph99%30.17 "Hg2 mi
4:00 PM44 °FFog.2 mph99%30.16 "Hg2 mi
3:00 PM44 °FLow clouds.2 mph99%30.14 "Hg2 mi
2:00 PM45 °FDrizzle. Low clouds.3 mph99%30.12 "Hg1 mi
1:00 PM45 °FDrizzle. Low clouds.3 mph99%30.11 "Hg1 mi
12:00 PM45 °FDrizzle. Low clouds.3 mph99%30.11 "Hg1 mi
11:00 AM45 °FDrizzle. Low clouds.2 mph99%30.08 "Hg1 mi
10:00 AM45 °FDrizzle. Low clouds.2 mph99%30.06 "Hg1 mi
9:00 AM45 °FDrizzle. Low clouds.2 mph99%30.03 "Hg1 mi
8:00 AM46 °FDrizzle. Low clouds.3 mph99%29.98 "Hg1 mi
7:00 AM47 °FRain. Overcast.2 mph99%29.94 "Hg1 mi
6:00 AM47 °FLight rain. Overcast.3 mph99%29.92 "Hg1 mi
5:00 AM48 °FLight rain. Overcast.3 mph97%29.88 "Hg3 mi
4:00 AM49 °FLight rain. Overcast.2 mph97%29.85 "Hg8 mi
3:00 AM49 °FRain. Overcast.3 mph99%29.83 "Hg5 mi
2:00 AM48 °FRain. Overcast.3 mph99%29.80 "Hg4 mi
1:00 AM47 °FRain. Overcast.3 mph100%29.79 "Hg4 mi
12:00 AM45 °FRain. Overcast.3 mph100%29.78 "Hg3 mi
Weather by CustomWeather, © 2014

See weather overviewHow to use our weather pages